Weather History for KPKD - March, 2014

Change the Weather History Date:

Wednesday, March 5, 2014

  Actual Average Record
Temperature  
Mean Temperature 4 °F -  
Max Temperature 21 °F 31 °F 52 °F (1987)
Min Temperature -14 °F 8 °F -27 °F (2003)
Degree Days  
Heating Degree Days 62    
Moisture  
Dew Point 3 °F    
Average Humidity 73    
Maximum Humidity 87    
Minimum Humidity 57    
Precipitation  
Precipitation 0.00 in - - ()
Sea Level Pressure  
Sea Level Pressure 30.36 in    
Wind  
Wind Speed 9 mph (SSE)    
Max Wind Speed 23 mph    
Max Gust Speed 34 mph    
Visibility 9 miles    
Events      
Averages and records for this station are not official NWS values.
T = Trace of Precipitation, MM = Missing Value Source: NWS Daily Summary

Daily Weather History Graph

Daily Weather History Graph

Search for Another Location

Airport or City:

Trip Planner

Search our weather history database for the weather conditions in past years. The results will help you decide how hot, cold, wet, or windy it might be!

Date:

Astronomy

Mar. 05, 2014 Rise Set
Actual Time 6:52 AM CST 6:11 PM CST
Civil Twilight 6:22 AM CST 6:42 PM CST
Nautical Twilight 5:47 AM CST 7:17 PM CST
Astronomical Twilight 5:11 AM CST 7:52 PM CST
Moon 8:59 AM CST (3/5) 11:42 PM CST (3/5)
Length of Visible Light 12h 20m
Length of Day
11h 19m
Waxing Crescent, 23% of the Moon is Illuminated
Mar 5
Waxing Crescent
Mar 8
First Quarter
Mar 16
Full
Mar 23
Last Quarter
Mar 30
New

Hourly Weather History & Observations

Time (CST) Temp. Windchill Dew Point Humidity Pressure Visibility Wind Dir Wind Speed Gust Speed Precip Events Conditions
12:53 AM -6.0 °F - -9.0 °F 87% 30.40 in 10.0 mi Calm Calm - N/A   Partly Cloudy
1:53 AM 1.9 °F -7.6 °F -2.9 °F 80% 30.39 in 10.0 mi East 4.6 mph - N/A   Clear
2:53 AM -7.1 °F - -11.0 °F 83% 30.41 in 10.0 mi Calm Calm - N/A   Clear
3:53 AM -14.1 °F - -17.0 °F 87% 30.43 in 10.0 mi Calm Calm - N/A   Clear
4:53 AM -9.9 °F -21.5 °F -14.1 °F 82% 30.44 in 10.0 mi East 4.6 mph - N/A   Partly Cloudy
5:53 AM -7.1 °F -15.9 °F -11.0 °F 83% 30.45 in 10.0 mi ESE 3.5 mph - N/A   Overcast
6:53 AM -6.0 °F - -9.0 °F 87% 30.49 in 10.0 mi Calm Calm - N/A   Overcast
7:53 AM 5.0 °F -8.1 °F -2.0 °F 73% 30.48 in 10.0 mi ESE 8.1 mph - N/A   Overcast
8:53 AM 6.1 °F -5.6 °F -0.9 °F 73% 30.50 in 10.0 mi ESE 6.9 mph - N/A   Overcast
9:53 AM 10.0 °F -3.7 °F 1.0 °F 67% 30.49 in 10.0 mi SE 10.4 mph - N/A   Mostly Cloudy
10:53 AM 14.0 °F -2.0 °F 3.9 °F 64% 30.47 in 10.0 mi SE 16.1 mph - N/A   Mostly Cloudy
11:53 AM 17.1 °F 3.0 °F 6.1 °F 62% 30.45 in 10.0 mi SE 13.8 mph - N/A   Partly Cloudy
12:53 PM 19.0 °F 4.5 °F 7.0 °F 59% 30.43 in 10.0 mi SSE 16.1 mph - N/A   Clear
1:07 PM 19.9 °F 4.3 °F 7.0 °F 57% 30.30 in 2.0 mi South 19.6 mph - N/A   Haze
1:17 PM 19.9 °F 4.8 °F 8.1 °F 60% 30.30 in 10.0 mi SSE 18.4 mph - N/A   Clear
1:53 PM 21.0 °F 6.6 °F 9.0 °F 60% 30.38 in 10.0 mi SSE 17.3 mph - N/A   Overcast
2:53 PM 21.0 °F 7.1 °F 9.0 °F 60% 30.39 in 9.0 mi South 16.1 mph - N/A   Overcast
3:53 PM 21.0 °F 6.2 °F 10.0 °F 63% 30.37 in 10.0 mi SSE 18.4 mph - N/A   Clear
4:53 PM 19.9 °F 4.3 °F 10.0 °F 65% 30.35 in 10.0 mi SSE 19.6 mph - N/A   Clear
5:53 PM 18.0 °F 3.6 °F 9.0 °F 68% 30.32 in 10.0 mi SSE 15.0 mph - N/A   Clear
6:53 PM 16.0 °F 1.1 °F 8.1 °F 71% 30.31 in 10.0 mi SSE 15.0 mph - N/A   Clear
7:53 PM 15.1 °F 1.8 °F 7.0 °F 70% 30.30 in 10.0 mi SSE 11.5 mph - N/A   Clear
8:53 PM 15.1 °F -0.1 °F 7.0 °F 70% 30.30 in 10.0 mi South 15.0 mph - N/A   Clear
9:53 PM 14.0 °F -2.5 °F 9.0 °F 80% 30.28 in 9.0 mi South 17.3 mph 27.6 mph N/A   Scattered Clouds
10:13 PM 15.1 °F -2.5 °F 10.0 °F 80% 30.17 in 5.0 mi South 20.7 mph - N/A   Haze
10:53 PM 15.1 °F -1.6 °F 10.0 °F 80% 30.25 in 5.0 mi South 18.4 mph 28.8 mph N/A   Haze
11:40 PM 14.0 °F -4.7 °F 10.0 °F 84% 30.13 in 5.0 mi South 23.0 mph 34.5 mph N/A   Overcast
11:53 PM 14.0 °F -3.4 °F 10.0 °F 84% 30.22 in 6.0 mi South 19.6 mph 27.6 mph N/A   Overcast